Track COSMOS 1579 now! 10-day predictions COSMOS 1579 is classified as:
1 15085U 84069A 21023.77320799 -.00000087 00000-0 14878-5 0 9997 2 15085 65.0505 155.2174 0053351 330.5859 29.2203 13.86065271852728